CW3340 Weather Reports


time (UTC)temp
C
wind
direction
speed
KPH
gust
KPH
rain 1hr
cm
rain 24hr
cm
rain mn
cm
humidity
%
barometer
mb
20260506143105 14 162 17.7 32.2 0.00 0.00 0.00 85 1009.9
20260506142604 14 173 12.9 40.2 0.00 0.00 0.00 85 1009.9
20260506142104 14 168 16.1 40.2 0.00 0.00 0.00 85 1009.9
20260506141604 14 166 17.7 32.2 0.00 0.00 0.00 85 1010.1
20260506141105 14 176 17.7 32.2 0.00 0.00 0.00 84 1010.1
20260506140604 14 166 9.7 29.0 0.00 0.00 0.00 84 1010.2
20260506140105 14 177 9.7 29.0 0.00 0.00 0.00 84 1010.2
20260506135604 15 166 14.5 29.0 0.00 0.00 0.00 84 1010.2
20260506135104 15 177 11.3 29.0 0.00 0.00 0.00 84 1010.3
20260506134604 14 179 9.7 35.4 0.00 0.00 0.00 84 1010.3
20260506134104 14 177 12.9 35.4 0.00 0.00 0.00 84 1010.4
20260506133604 15 186 14.5 32.2 0.00 0.00 0.00 84 1010.6
20260506133104 15 177 19.3 32.2 0.00 0.00 0.00 84 1010.6
20260506132604 15 180 9.7 27.4 0.00 0.00 0.00 84 1010.5
20260506132104 15 175 9.7 32.2 0.00 0.00 0.00 85 1010.5
20260506131604 14 175 8.0 32.2 0.00 0.00 0.00 85 1010.4
20260506131104 14 176 16.1 25.7 0.00 0.00 0.00 85 1010.3
20260506130604 14 181 12.9 24.1 0.00 0.00 0.00 86 1010.4
20260506130105 14 172 9.7 24.1 0.00 0.00 0.00 86 1010.4
20260506125604 13 193 8.0 24.1 0.00 0.00 0.00 86 1010.3
20260506125106 13 165 12.9 25.7 0.00 0.00 0.00 86 1010.3
20260506124604 13 180 9.7 25.7 0.00 0.00 0.00 87 1010.3
20260506124104 13 172 11.3 25.7 0.00 0.00 0.00 86 1010.4
20260506123604 13 171 8.0 24.1 0.00 0.00 0.00 86 1010.5
20260506123105 14 183 8.0 24.1 0.00 0.00 0.00 86 1010.4
20260506122604 14 173 11.3 24.1 0.00 0.00 0.00 86 1010.5
20260506122104 14 179 6.4 22.5 0.00 0.00 0.00 86 1010.7
20260506121604 14 197 8.0 22.5 0.00 0.00 0.00 87 1010.7
20260506121104 14 170 14.5 22.5 0.00 0.00 0.00 87 1010.7
20260506120604 14 175 9.7 22.5 0.00 0.00 0.00 87 1010.7
20260506120105 14 182 8.0 19.3 0.00 0.00 0.00 88 1010.8
20260506115604 13 191 8.0 19.3 0.00 0.00 0.00 88 1010.9
20260506115104 13 184 4.8 19.3 0.00 0.00 0.00 88 1010.8
20260506114604 13 185 6.4 19.3 0.00 0.00 0.00 89 1010.8
20260506114104 13 187 3.2 19.3 0.00 0.00 0.00 89 1010.7
20260506113604 13 187 6.4 19.3 0.00 0.00 0.00 90 1010.7
20260506113104 13 184 4.8 19.3 0.00 0.00 0.00 90 1010.7
20260506112604 13 198 8.0 22.5 0.00 0.00 0.00 90 1010.6
20260506112104 13 176 11.3 22.5 0.00 0.00 0.00 91 1010.5
20260506111604 13 183 14.5 24.1 0.00 0.00 0.00 91 1010.5
20260506111105 12 173 8.0 24.1 0.00 0.00 0.00 91 1010.6
20260506110604 12 188 9.7 20.9 0.00 0.00 0.00 91 1010.6
20260506110105 12 180 9.7 20.9 0.00 0.00 0.00 91 1010.6
20260506105604 12 175 4.8 24.1 0.00 0.00 0.00 91 1010.7
20260506105104 12 179 8.0 24.1 0.00 0.00 0.00 92 1010.7
20260506104604 12 205 9.7 22.5 0.00 0.00 0.00 92 1010.6
20260506104104 12 205 8.0 20.9 0.00 0.00 0.00 91 1010.6
20260506103604 12 191 8.0 27.4 0.00 0.00 0.00 92 1010.5
20260506103105 12 197 8.0 27.4 0.00 0.00 0.00 92 1010.5
20260506102604 12 158 4.8 20.9 0.00 0.00 0.00 91 1010.4
20260506102104 12 184 6.4 19.3 0.00 0.00 0.00 91 1010.4
20260506101604 12 182 4.8 20.9 0.00 0.00 0.00 91 1010.4
20260506101104 12 221 8.0 20.9 0.00 0.00 0.00 91 1010.4
20260506100604 12 176 8.0 20.9 0.00 0.00 0.00 91 1010.4
20260506100105 12 172 8.0 20.9 0.00 0.00 0.00 91 1010.4
20260506095604 12 182 8.0 22.5 0.00 0.00 0.00 91 1010.3
20260506095105 12 171 11.3 25.7 0.00 0.00 0.00 91 1010.3
20260506094604 12 219 9.7 25.7 0.00 0.00 0.00 91 1010.3
20260506094104 12 181 11.3 32.2 0.00 0.00 0.00 91 1010.4
20260506093604 12 183 14.5 32.2 0.00 0.00 0.00 91 1010.4
20260506093104 12 181 11.3 22.5 0.00 0.00 0.00 91 1010.4
20260506092604 12 184 6.4 25.7 0.00 0.00 0.00 91 1010.4
20260506092104 12 189 8.0 25.7 0.00 0.00 0.00 91 1010.5
20260506091604 12 191 6.4 22.5 0.00 0.00 0.00 90 1010.4
20260506091104 12 221 4.8 20.9 0.00 0.00 0.00 90 1010.4
20260506090604 12 164 4.8 19.3 0.00 0.00 0.00 90 1010.4
20260506090105 12 207 4.8 14.5 0.00 0.00 0.00 90 1010.6
20260506085604 12 173 9.7 22.5 0.00 0.00 0.00 90 1010.6
20260506085104 12 189 6.4 25.7 0.00 0.00 0.00 90 1010.6
20260506084604 12 176 14.5 25.7 0.00 0.00 0.00 90 1010.5
20260506084104 12 167 14.5 25.7 0.00 0.00 0.00 90 1010.6
20260506083604 12 188 8.0 24.1 0.00 0.00 0.00 90 1010.7
20260506083105 12 191 9.7 24.1 0.00 0.00 0.00 90 1010.7
20260506082604 12 167 12.9 20.9 0.00 0.00 0.00 90 1010.7
20260506082104 12 156 9.7 22.5 0.00 0.00 0.00 90 1010.8
20260506081604 12 191 8.0 22.5 0.00 0.00 0.00 89 1010.8
20260506081104 12 188 9.7 19.3 0.00 0.00 0.00 89 1010.8
20260506080604 12 203 9.7 19.3 0.00 0.00 0.00 89 1010.9
20260506080105 12 121 4.8 19.3 0.00 0.00 0.00 89 1010.9
20260506073104 12 170 8.0 22.5 0.00 0.00 0.00 89 1010.9
20260506072604 12 180 9.7 19.3 0.00 0.00 0.00 89 1010.9
20260506072104 12 152 8.0 22.5 0.00 0.00 0.00 89 1011.0
20260506071604 12 180 11.3 22.5 0.00 0.00 0.00 89 1011.0
20260506071104 12 187 11.3 22.5 0.00 0.00 0.00 89 1011.0
20260506070604 12 170 6.4 25.7 0.00 0.00 0.00 88 1011.0
20260506070105 12 164 8.0 29.0 0.00 0.00 0.00 88 1011.0
20260506062104 12 173 8.0 24.1 0.00 0.00 0.00 88 1010.9
20260506061604 12 156 8.0 27.4 0.00 0.00 0.00 88 1010.9
20260506061104 12 204 14.5 27.4 0.00 0.00 0.00 88 1011.0
20260506060604 12 193 9.7 25.7 0.00 0.00 0.00 87 1011.0
20260506060105 12 173 4.8 25.7 0.00 0.00 0.00 87 1010.9
20260506051105 13 188 14.5 29.0 0.00 0.00 0.00 86 1011.3
20260506050604 13 172 14.5 29.0 0.00 0.00 0.00 86 1011.3
20260506050105 13 184 12.9 29.0 0.00 0.00 0.00 85 1011.3
20260506045104 13 177 9.7 24.1 0.00 0.00 0.00 85 1011.4
20260506044604 13 188 11.3 25.7 0.00 0.00 0.00 85 1011.3
20260506044104 13 185 9.7 33.8 0.00 0.00 0.00 85 1011.3
20260506043604 13 179 11.3 33.8 0.00 0.00 0.00 85 1011.4
20260506043105 13 177 12.9 29.0 0.00 0.00 0.00 84 1011.4
20260506042604 13 190 12.9 27.4 0.00 0.00 0.00 84 1011.4
20260506042104 13 176 12.9 35.4 0.00 0.00 0.00 84 1011.3
20260506041604 13 93 14.5 38.6 0.00 0.00 0.00 84 1011.2
20260506041105 13 202 16.1 38.6 0.00 0.00 0.00 84 1011.2
20260506040604 13 179 9.7 37.0 0.00 0.00 0.00 84 1011.2
20260506040105 13 178 12.9 37.0 0.00 0.00 0.00 84 1011.3
20260506035604 13 190 16.1 37.0 0.00 0.00 0.00 83 1011.3
20260506035104 13 189 16.1 33.8 0.00 0.00 0.00 83 1011.2
20260506034604 13 173 9.7 32.2 0.00 0.00 0.00 83 1011.2
20260506034104 13 178 14.5 32.2 0.00 0.00 0.00 83 1011.2
20260506033604 13 182 14.5 33.8 0.00 0.00 0.00 83 1011.1
20260506033104 14 177 14.5 35.4 0.00 0.00 0.00 83 1011.1
20260506032604 14 180 12.9 35.4 0.00 0.00 0.00 83 1011.0
20260506032104 14 187 16.1 32.2 0.00 0.00 0.00 83 1011.1
20260506031604 14 172 17.7 38.6 0.00 0.00 0.00 82 1011.1
20260506031104 14 176 20.9 38.6 0.00 0.00 0.00 82 1011.1
20260506030604 14 190 11.3 33.8 0.00 0.00 0.00 82 1011.0
20260506030105 14 155 11.3 33.8 0.00 0.00 0.00 82 1011.1
20260506025604 14 197 11.3 29.0 0.00 0.00 0.00 82 1011.1
20260506025104 14 203 11.3 32.2 0.00 0.00 0.00 82 1011.0
20260506024604 14 191 11.3 37.0 0.00 0.00 0.00 82 1011.0
20260506024104 14 200 19.3 37.0 0.00 0.00 0.00 82 1010.9
20260506023604 14 195 19.3 32.2 0.00 0.00 0.00 82 1011.0
20260506023105 14 190 14.5 32.2 0.00 0.00 0.00 82 1011.1
20260506022604 14 167 14.5 29.0 0.00 0.00 0.00 81 1011.0
20260506022104 14 183 11.3 32.2 0.00 0.00 0.00 81 1011.0
20260506021604 14 183 12.9 32.2 0.00 0.00 0.00 81 1011.1
20260506021104 14 187 14.5 35.4 0.00 0.00 0.00 81 1011.1
20260506020604 14 168 11.3 37.0 0.00 0.00 0.00 80 1011.1
20260506020105 14 178 11.3 37.0 0.00 0.00 0.00 80 1011.0
20260506015604 14 185 14.5 33.8 0.00 0.00 0.00 80 1011.0
20260506015104 14 172 14.5 32.2 0.00 0.00 0.00 80 1011.1
20260506014604 14 132 11.3 27.4 0.00 0.00 0.00 80 1011.0
20260506014104 14 193 14.5 32.2 0.00 0.00 0.00 80 1010.9
20260506013604 14 175 14.5 32.2 0.00 0.00 0.00 80 1010.9
20260506013104 15 178 11.3 32.2 0.00 0.00 0.00 79 1010.9
20260506012604 15 191 19.3 33.8 0.00 0.00 0.00 79 1010.9
20260506012104 15 176 16.1 33.8 0.00 0.00 0.00 79 1010.9
20260506011604 15 178 19.3 33.8 0.00 0.00 0.00 79 1010.8
20260506011104 15 183 16.1 32.2 0.00 0.00 0.00 78 1010.8
20260506010604 15 177 16.1 40.2 0.00 0.00 0.00 78 1010.8
20260506010105 15 174 19.3 40.2 0.00 0.00 0.00 77 1010.7
20260506005604 15 174 19.3 33.8 0.00 0.00 0.00 77 1010.7
20260506005104 15 188 14.5 32.2 0.00 0.00 0.00 77 1010.6
20260506004604 15 201 12.9 35.4 0.00 0.00 0.00 77 1010.6
20260506004104 15 177 16.1 40.2 0.00 0.00 0.00 76 1010.6
20260506003604 15 168 11.3 40.2 0.00 0.00 0.00 76 1010.5
20260506003104 15 178 22.5 40.2 0.00 0.00 0.00 76 1010.5
20260506002604 15 197 14.5 38.6 0.00 0.00 0.00 76 1010.3
20260506002104 16 180 22.5 41.8 0.00 0.00 0.00 76 1010.3
20260506001604 16 174 16.1 41.8 0.00 0.00 0.00 75 1010.2
20260506001104 16 240 19.3 41.8 0.00 0.00 0.00 75 1010.2
20260506000604 16 170 22.5 45.1 0.00 0.00 0.00 74 1010.2
20260506000105 16 174 19.3 45.1 0.00 0.00 0.00 73 1010.0
20260505235604 16 206 19.3 41.8 0.00 0.00 0.00 72 1009.9
20260505235104 16 145 16.1 40.2 0.00 0.00 0.00 72 1009.8
20260505234604 17 166 19.3 41.8 0.00 0.00 0.00 72 1009.7
20260505234104 17 159 17.7 41.8 0.00 0.00 0.00 72 1009.6
20260505233604 17 178 16.1 38.6 0.00 0.00 0.00 72 1009.3
20260505233106 16 212 20.9 38.6 0.00 0.00 0.00 73 1009.3
20260505232604 16 164 20.9 38.6 0.00 0.00 0.00 73 1009.3
20260505232104 16 168 27.4 41.8 0.00 0.00 0.00 73 1009.2
20260505231604 16 199 20.9 41.8 0.00 0.00 0.00 73 1009.1
20260505231106 16 190 19.3 38.6 0.00 0.00 0.00 73 1009.0
20260505230604 16 185 19.3 38.6 0.00 0.00 0.00 72 1009.0
20260505230105 16 177 20.9 41.8 0.00 0.00 0.00 72 1009.0
20260505225604 16 200 24.1 41.8 0.00 0.00 0.00 72 1008.9
20260505225104 17 209 16.1 38.6 0.00 0.00 0.00 71 1009.0
20260505224604 17 183 19.3 38.6 0.00 0.00 0.00 71 1008.9
20260505224104 17 203 16.1 41.8 0.00 0.00 0.00 71 1009.0
20260505223604 17 168 14.5 41.8 0.00 0.00 0.00 71 1009.0
20260505223105 17 188 20.9 41.8 0.00 0.00 0.00 70 1008.9
20260505222604 17 200 14.5 41.8 0.00 0.00 0.00 71 1008.7
20260505222104 17 219 16.1 40.2 0.00 0.00 0.00 70 1008.7
20260505221604 17 196 20.9 41.8 0.00 0.00 0.00 70 1008.8
20260505221104 17 236 17.7 41.8 0.00 0.00 0.00 69 1008.8
20260505220604 17 178 17.7 40.2 0.00 0.00 0.00 69 1008.8
20260505220105 17 216 16.1 38.6 0.00 0.00 0.00 69 1008.7
20260505215604 17 189 22.5 40.2 0.00 0.00 0.00 69 1008.7
20260505215104 17 189 17.7 40.2 0.00 0.00 0.00 69 1008.6
20260505214604 17 165 14.5 37.0 0.00 0.00 0.00 69 1008.7
20260505214104 17 197 14.5 45.1 0.00 0.00 0.00 69 1008.7
20260505213604 17 168 16.1 45.1 0.00 0.00 0.00 70 1008.7
20260505213104 17 221 19.3 45.1 0.00 0.00 0.00 69 1008.6
20260505212604 17 178 22.5 38.6 0.00 0.00 0.00 69 1008.5
20260505212104 18 247 19.3 38.6 0.00 0.00 0.00 69 1008.5
20260505211604 18 193 19.3 41.8 0.00 0.00 0.00 68 1008.4
20260505211104 17 187 20.9 51.5 0.00 0.00 0.00 69 1008.3
20260505210604 17 172 22.5 51.5 0.00 0.00 0.00 69 1008.2
20260505210105 17 197 16.1 40.2 0.00 0.00 0.00 69 1008.3
20260505205604 17 188 20.9 40.2 0.00 0.00 0.00 70 1008.4
20260505205104 17 177 19.3 41.8 0.00 0.00 0.00 70 1008.5
20260505204604 17 157 22.5 41.8 0.00 0.00 0.00 70 1008.5
20260505204104 17 176 20.9 41.8 0.00 0.00 0.00 70 1008.5
20260505203604 17 200 19.3 37.0 0.00 0.00 0.00 70 1008.5
20260505203104 17 215 19.3 51.5 0.00 0.00 0.00 70 1008.5
20260505202604 17 282 14.5 51.5 0.00 0.00 0.00 69 1008.6
20260505202104 17 193 17.7 37.0 0.00 0.00 0.00 70 1008.6
20260505201604 17 182 20.9 38.6 0.00 0.00 0.00 69 1008.6
20260505201104 17 180 17.7 38.6 0.00 0.00 0.00 70 1008.7
20260505200604 17 147 16.1 38.6 0.00 0.00 0.00 70 1008.7
20260505200105 17 177 22.5 41.8 0.00 0.00 0.00 70 1008.7
20260505195604 17 179 25.7 41.8 0.00 0.00 0.00 69 1008.9
20260505195104 18 193 25.7 56.3 0.00 0.00 0.00 69 1008.8
20260505194604 18 187 19.3 56.3 0.00 0.00 0.00 69 1008.9
20260505194104 18 163 20.9 45.1 0.00 0.00 0.00 68 1008.9
20260505193604 18 194 14.5 35.4 0.00 0.00 0.00 69 1009.1
20260505193104 18 186 19.3 35.4 0.00 0.00 0.00 69 1009.1
20260505192604 18 170 20.9 35.4 0.00 0.00 0.00 68 1009.2
20260505192104 18 178 20.9 35.4 0.00 0.00 0.00 67 1009.3
20260505191604 18 208 11.3 41.8 0.00 0.00 0.00 68 1009.5
20260505191104 18 195 19.3 41.8 0.00 0.00 0.00 67 1009.5
20260505190604 19 192 16.1 37.0 0.00 0.00 0.00 68 1009.7
20260505190105 18 187 20.9 38.6 0.00 0.00 0.00 68 1009.9
20260505185604 18 203 19.3 40.2 0.00 0.00 0.00 69 1009.8
20260505185104 18 172 19.3 40.2 0.00 0.00 0.00 69 1010.0
20260505184604 18 175 11.3 35.4 0.00 0.00 0.00 68 1010.0
20260505184104 18 187 19.3 37.0 0.00 0.00 0.00 68 1010.0
20260505183604 18 187 14.5 37.0 0.00 0.00 0.00 67 1010.1
20260505183104 19 182 20.9 35.4 0.00 0.00 0.00 68 1010.2
20260505182604 18 158 11.3 29.0 0.00 0.00 0.00 70 1010.2
20260505182104 18 176 16.1 29.0 0.00 0.00 0.00 68 1010.2
20260505181604 18 189 9.7 29.0 0.00 0.00 0.00 70 1010.3
20260505181104 18 183 16.1 27.4 0.00 0.00 0.00 70 1010.3
20260505180604 18 184 16.1 27.4 0.00 0.00 0.00 70 1010.5
20260505180105 18 166 11.3 27.4 0.00 0.00 0.00 70 1010.5
20260505175604 18 171 11.3 25.7 0.00 0.00 0.00 71 1010.5
20260505175104 17 186 8.0 25.7 0.00 0.00 0.00 72 1010.6
20260505174604 18 179 17.7 25.7 0.00 0.00 0.00 70 1010.7
20260505174104 18 170 12.9 20.9 0.00 0.00 0.00 70 1010.8
20260505173604 18 173 9.7 22.5 0.00 0.00 0.00 71 1010.7
20260505173104 18 173 9.7 24.1 0.00 0.00 0.00 72 1010.9
20260505172604 18 182 6.4 24.1 0.00 0.00 0.00 71 1010.9
20260505172104 18 184 9.7 24.1 0.00 0.00 0.00 72 1010.8
20260505171604 17 188 11.3 24.1 0.00 0.00 0.00 71 1010.9
20260505171104 18 180 9.7 24.1 0.00 0.00 0.00 71 1010.9
20260505170604 18 186 11.3 25.7 0.00 0.00 0.00 71 1011.0
20260505170105 17 168 11.3 27.4 0.00 0.00 0.00 71 1010.9
20260505165604 17 191 16.1 27.4 0.00 0.00 0.00 71 1011.1
20260505165105 17 190 16.1 27.4 0.00 0.00 0.00 72 1011.1
20260505164604 17 194 9.7 27.4 0.00 0.00 0.00 72 1011.1
20260505164104 17 172 11.3 32.2 0.00 0.00 0.00 71 1011.2
20260505163604 18 190 14.5 32.2 0.00 0.00 0.00 69 1011.1
20260505163104 18 178 12.9 25.7 0.00 0.00 0.00 69 1011.2
20260505162604 18 187 14.5 25.7 0.00 0.00 0.00 69 1011.2
20260505162104 19 169 12.9 20.9 0.00 0.00 0.00 68 1011.2
20260505161604 20 180 12.9 19.3 0.00 0.00 0.00 68 1011.2
20260505161104 20 189 9.7 22.5 0.00 0.00 0.00 67 1011.3
20260505160604 20 176 11.3 22.5 0.00 0.00 0.00 67 1011.3
20260505160105 20 171 9.7 22.5 0.00 0.00 0.00 68 1011.4
20260505153104 18 168 11.3 22.5 0.00 0.00 0.00 71 1011.7
20260505152604 18 167 14.5 22.5 0.00 0.00 0.00 71 1011.7
20260505152104 18 167 11.3 19.3 0.00 0.00 0.00 72 1011.8
20260505151604 18 160 9.7 16.1 0.00 0.00 0.00 72 1011.7
20260505151104 18 168 9.7 16.1 0.00 0.00 0.00 73 1011.8
20260505150604 18 171 8.0 19.3 0.00 0.00 0.00 72 1011.9
20260505150105 17 199 3.2 19.3 0.00 0.00 0.00 74 1012.0